DECAYED

SL-16 DEB, 22554 (Decayed)

Orbit data source: Space-Track

SL-16 DEB, 22554 was space debris in LEO originally from a launch on Fri, 25 Dec 1992 UTC launched from the Tyuratam Missile And Space Complex (TTMTR). Debris objects in space refer to the collection of defunct objects orbiting the Earth. Examples of debris include non-operational satellites, rocket bodies, and fragments generated from explosions, collisions, or faulty payload assembly.

Not visible in the next 10 days
Identifier
22554, 1992-093HQ
Orbit
Decayed
Country
Flag of CISCIS
Related business
Manufacturer
Unknown
Mission
Decayed spacecraft
Bus & Motor
Unknown
Mass
Unknown
Launch date (UTC)
1992-12-25 (33 years ago)
Launch vehicle
Unknown
Launch site
Tyuratam Missile And Space Complex (TTMTR)
Object type
Payload
Rocket body
Debris
Shape & HBR
Unknown shape, 0.1 m
Radar Cross Section
Small (<0.1 m²)

Expand to show TLE details & history
Last TLE update: 1 year ago

TLE from 1 year ago
0 SL-16 DEB
1 22554U 92093HQ  25044.19248519  .03229229  00000-0  17074-1 0  9994
2 22554  71.3555 338.7491 0014537 173.5218 186.6182 15.76590836664477
Epoch: 2025-02-13T04:37Z
TLE epoch observation values (Epoch: 2025-02-13T04:37:10.720Z)
Latitude
-0.00003°
Longitude
125.9823°
Altitude
352.416 km
Speed
7.692 km/s
True Right ascension
22h 34m 59s
True Declination
0° 00' 00"
Sunlit
Object was in daylight at epoch
Visualization orbit readout
Latitude
Unknown
Longitude
Unknown
Altitude
Unknown
Speed
Unknown
Apparent Right ascension
Unknown
Apparent Declination
Unknown
Sunlit
N/A
Visualization observer readout
Local Sidereal Time
21:10:02
Azimuth
Unknown
Elevation
Unknown
Doppler factor
Unknown
Orbital elements
Apogee altitude
347.603 km
Perigee altitude
328.077 km
Semi-major axis
6,715.977 km
Eccentricity
0.00145
Inclination
71.3555°
RAAN
338.7491°
Arg. of periapsis
173.5218°
True anomaly
186.59904°
Mean anomaly
186.6182°
Eccentric anomaly
186.60861°
Mean motion
3.94348 °/min
Orbital period
91.29 mins
BSTAR
0.017074
Loading maneuver chart data...
Computing Atmospheric mass density...
Loading historical data...
Loading historical data...
Loading historical data...
Loading historical data...
Loading historical data...
Loading historical data...
Loading historical data...

Documentation

Showing up to 5 results
|